User: anonymous   Login
Location: *
(47.2969°N, 10.2930°E)
Time: 10:51:04
(UTC+00:00)
Language:

Cosmos 1697 Rocket - Orbit

View from above orbital plane
View from above orbital plane
View from above satellite
View from above satellite

Ground track
Ground track

The orbit data is extracted from the following two-line orbital elements,

1 16182U 85097B   20184.51534228 +.00000253 +00000-0 +15196-3 0  9997
2 16182 071.0010 189.8080 0007945 196.7156 315.6154 14.16252334793288
Epoch (UTC): 02 July 2020 12:22:05
Eccentricity: 0.0007945
inclination: 71.0010°
perigee height: 832 km
apogee height: 844 km
right ascension of ascending node: 189.8080°
argument of perigee: 196.7156°
revolutions per day: 14.16252334
mean anomaly at epoch: 315.6154°
orbit number at epoch: 79328

The dashed part of the orbit path shows where the satellite is in the earth's shadow,  

DLR